Flag for Switzerland Weather past 2 weeks in Regensdorf, Zurich, Switzerland

Now
49 °F

Cool.


Feels Like: 43 °F
Forecast: 44 / 49 °F
Wind: 22 mph from Southwest

Location: Zurich-Kloten

Current Time: Mar 29, 2015 at 11:05:53 PM

Latest Report: Mar 29, 2015 at 10:00 PM


Visibility: N/A

Pressure: 29.80 "Hg

Humidity: 82%

Dew point: 44 °F

Location of RegensdorfLocation

Historic Weather in Regensdorf — Graph

°F

Regensdorf temperature yesterday

Maximum temperature yesterday: 57 °F (at 2:00 PM)
Minimum temperature yesterday: 29 °F (at 5:00 AM)
Average temperature yesterday: 43 °F

Past Weeks' High & Low Weather Summary

 TemperatureHumidityPressure
High64 °F (Mar 18, 4:00 PM)100% (Mar 20, 5:00 PM)30.34 "Hg (Mar 20, 5:00 PM)
Low29 °F (Mar 28, 5:00 AM)31% (Mar 18, 4:00 PM)29.58 "Hg (Mar 25, 2:00 PM)
Average45 °F73%30.06 "Hg
* Reported Mar 14 8:00 PM — Mar 29 9:00 PM, Regensdorf, Weather by CustomWeather, © 2015

Note: Actual official high and low records may vary slightly from our data, if they occured in-between our weather recording intervals... More about our weather records

Advertising

Regensdorf weather history for previous 24 hours

 ConditionsComfort  
Time TempWeatherWind HumidityBarometerVisibility
9:00 PM
Sun, Mar 29
49 °FCool.21 mph85%29.81 "HgN/A
8:00 PM50 °FSprinkles. Overcast.15 mph77%29.80 "Hg19 mi
7:00 PM51 °FCool.21 mph73%29.83 "HgN/A
6:00 PM51 °FCool.20 mph72%29.85 "HgN/A
5:00 PM49 °FSprinkles. Overcast.21 mph77%29.88 "Hg16 mi
4:00 PM49 °FCool.20 mph75%29.90 "HgN/A
3:00 PM49 °FCool.16 mph77%29.91 "HgN/A
2:00 PM50 °FLight rain. Overcast.16 mph76%29.92 "Hg6 mi
1:00 PM52 °FCool.17 mph70%29.90 "HgN/A
12:00 PM53 °FCool.16 mph64%29.93 "HgN/A
11:00 AM54 °FOvercast.16 mph63%29.95 "Hg25 mi
10:00 AM51 °FCool.18 mph70%29.97 "HgN/A
9:00 AM50 °FCool.17 mph72%29.99 "HgN/A
8:00 AM49 °FOvercast.16 mph73%30.00 "Hg31 mi
7:00 AM48 °FCool.16 mph77%30.01 "HgN/A
6:00 AM47 °FCool.13 mph83%30.04 "HgN/A
5:00 AM48 °FOvercast.13 mph80%30.05 "Hg9 mi
4:00 AM47 °FCool.15 mph81%30.09 "HgN/A
3:00 AM47 °FCool.12 mph82%30.09 "HgN/A
1:00 AM46 °FOvercast.8 mph84%30.10 "Hg12 mi
12:00 AM47 °FCool.12 mph83%30.11 "HgN/A
11:00 PM
Sat, Mar 28
46 °FCool.12 mph90%30.13 "HgN/A
Weather by CustomWeather, © 2015

See weather overviewHow to use our weather pages